TimeEST,TemperatureF,Dew PointF,Humidity,Sea Level PressureIn,VisibilityMPH,Wind Direction,Wind SpeedMPH,Gust SpeedMPH,PrecipitationIn,Events,Conditions,WindDirDegrees,DateUTC
12:06 AM,21.2,17.6,86,29.60,0.8,North,21.9,35.7,N/A,,Haze,10,2013-02-09 05:06:00
12:52 AM,21.0,17.1,85,29.63,0.5,North,18.4,26.5,0.02,Fog,Light Freezing Fog,360,2013-02-09 05:52:00
1:52 AM,21.0,17.1,85,29.65,0.5,North,11.5,21.9,0.05,Fog,Light Freezing Fog,350,2013-02-09 06:52:00
2:52 AM,19.9,15.1,81,29.64,0.5,North,11.5,21.9,0.02,,Haze,350,2013-02-09 07:52:00
3:06 AM,19.4,15.8,86,29.64,0.5,North,11.5,19.6,0.01,Fog,Light Freezing Fog,360,2013-02-09 08:06:00
3:17 AM,21.2,15.8,80,29.64,0.8,NNW,13.8,-,0.02,,Haze,340,2013-02-09 08:17:00
3:52 AM,21.0,17.1,85,29.66,0.5,NNW,9.2,21.9,0.04,Fog-Snow,Snow,340,2013-02-09 08:52:00
4:52 AM,21.9,17.1,82,29.69,0.5,NNW,16.1,24.2,0.03,Snow,Snow,330,2013-02-09 09:52:00
5:16 AM,21.2,17.6,86,29.68,1.0,NNW,16.1,28.8,0.00,Snow,Light Snow,330,2013-02-09 10:16:00
5:52 AM,21.9,16.0,78,29.70,1.0,NNW,17.3,27.6,0.00,Snow,Light Snow,330,2013-02-09 10:52:00
6:18 AM,21.2,15.8,80,29.71,0.8,NNW,15.0,25.3,0.00,Snow,Light Snow,330,2013-02-09 11:18:00
6:37 AM,21.2,15.8,80,29.71,0.8,NNW,13.8,26.5,0.01,Snow,Light Snow,330,2013-02-09 11:37:00
6:52 AM,21.0,16.0,81,29.73,0.8,NNW,16.1,31.1,0.01,Snow,Light Snow,340,2013-02-09 11:52:00
7:52 AM,21.0,15.1,78,29.75,0.5,NNW,15.0,26.5,0.01,Snow,Snow,340,2013-02-09 12:52:00
8:45 AM,21.2,14.0,74,29.78,0.5,NNW,20.7,27.6,0.00,Snow,Snow,330,2013-02-09 13:45:00
8:52 AM,21.0,15.1,78,29.79,0.5,NNW,16.1,27.6,0.00,Snow,Snow,330,2013-02-09 13:52:00
9:23 AM,21.2,14.0,74,29.78,0.8,NNW,20.7,29.9,0.00,Snow,Light Snow,330,2013-02-09 14:23:00
9:52 AM,21.0,12.9,71,29.81,0.8,NNW,15.0,38.0,0.00,Snow,Light Snow,340,2013-02-09 14:52:00
10:43 AM,21.2,12.2,68,29.84,1.0,North,19.6,31.1,0.01,Snow,Light Snow,350,2013-02-09 15:43:00
10:52 AM,21.0,12.9,71,29.86,1.2,NNW,15.0,32.2,0.01,Snow,Light Snow,330,2013-02-09 15:52:00
11:39 AM,21.2,12.2,68,29.86,2.5,NNW,15.0,28.8,0.00,Snow,Light Snow,340,2013-02-09 16:39:00
11:48 AM,23.0,12.2,63,29.86,4.0,NNW,15.0,31.1,0.00,Snow,Light Snow,330,2013-02-09 16:48:00
11:52 AM,23.0,12.0,63,29.87,3.0,NNW,21.9,31.1,0.00,Snow,Light Snow,340,2013-02-09 16:52:00
12:01 PM,21.2,12.2,68,29.87,1.8,NNW,19.6,26.5,0.00,Snow,Light Snow,330,2013-02-09 17:01:00
12:10 PM,21.2,12.2,68,29.87,0.5,NNW,25.3,35.7,0.00,Snow,Snow,340,2013-02-09 17:10:00
12:20 PM,23.0,12.2,63,29.88,1.8,NNW,15.0,33.4,0.00,Snow,Light Snow,340,2013-02-09 17:20:00
12:27 PM,23.0,12.2,63,29.88,2.5,NNW,19.6,33.4,0.00,Snow,Light Snow,340,2013-02-09 17:27:00
12:36 PM,24.8,12.2,59,29.88,1.8,NNW,20.7,31.1,0.00,Snow,Light Snow,340,2013-02-09 17:36:00
12:41 PM,23.0,12.2,63,29.88,3.0,NNW,17.3,28.8,0.00,Snow,Light Snow,330,2013-02-09 17:41:00
12:52 PM,24.1,12.0,60,29.89,6.0,North,16.1,26.5,0.00,Snow,Light Snow,350,2013-02-09 17:52:00
1:52 PM,25.0,10.0,53,29.91,6.0,NNW,16.1,29.9,0.00,Snow,Light Snow,340,2013-02-09 18:52:00
2:38 PM,26.6,10.4,51,29.92,1.8,NNW,25.3,36.8,0.00,Snow,Light Snow,340,2013-02-09 19:38:00
2:52 PM,27.0,9.0,47,29.94,3.0,North,19.6,35.7,0.00,Snow,Light Snow,350,2013-02-09 19:52:00
3:02 PM,26.6,8.6,47,29.93,2.0,North,19.6,39.1,0.00,Snow,Light Snow,10,2013-02-09 20:02:00
3:15 PM,26.6,8.6,47,29.94,1.5,NNW,16.1,38.0,0.00,Snow,Light Snow,340,2013-02-09 20:15:00
3:20 PM,26.6,6.8,43,29.95,4.0,NNW,19.6,32.2,0.00,,Clear,330,2013-02-09 20:20:00
3:52 PM,26.1,5.0,41,29.98,8.0,NNW,19.6,28.8,0.00,,Clear,330,2013-02-09 20:52:00
4:52 PM,26.1,1.9,35,30.02,9.0,NNW,15.0,25.3,0.00,,Clear,330,2013-02-09 21:52:00
5:22 PM,24.8,3.2,40,30.03,1.2,NNW,18.4,26.5,0.00,,Partly Cloudy,330,2013-02-09 22:22:00
5:24 PM,24.8,5.0,43,30.03,0.8,North,13.8,26.5,0.00,Snow,Light Snow,350,2013-02-09 22:24:00
5:32 PM,24.8,1.4,36,30.04,1.5,NNW,17.3,28.8,0.00,,Partly Cloudy,330,2013-02-09 22:32:00
5:35 PM,24.8,1.4,36,30.04,3.0,NNW,18.4,28.8,0.00,,Partly Cloudy,340,2013-02-09 22:35:00
5:52 PM,24.1,-0.9,34,30.06,9.0,North,12.7,24.2,0.00,,Clear,350,2013-02-09 22:52:00
6:52 PM,21.9,-2.0,35,30.12,9.0,NNW,13.8,24.2,0.00,,Clear,340,2013-02-09 23:52:00
7:52 PM,21.0,-5.1,32,30.15,10.0,NNW,16.1,23.0,N/A,,Clear,330,2013-02-10 00:52:00
8:52 PM,19.9,-5.1,33,30.17,10.0,NNW,15.0,26.5,N/A,,Clear,340,2013-02-10 01:52:00
9:52 PM,19.0,-2.9,38,30.21,10.0,North,10.4,19.6,N/A,,Clear,360,2013-02-10 02:52:00
10:52 PM,18.0,-0.9,44,30.24,10.0,North,9.2,21.9,N/A,,Clear,350,2013-02-10 03:52:00
11:52 PM,18.0,-2.0,41,30.26,10.0,North,9.2,-,N/A,,Clear,360,2013-02-10 04:52:00